{"data":{"norad_id":63698,"intl_designator":"2025-087B","name":"STARLINK-33922","alt_names":[],"object_type":"PAYLOAD","status":"ACTIVE","operator":null,"country":"US","launch_date":"2025-04-28","launch_site_code":"AFWTR","launch_vehicle":null,"mission":null,"orbit_class":"UNKNOWN","rcs_meters":null,"size_class":null,"mass_kg":null,"dimensions":null,"purposes":["comms"],"wikipedia_slug":null,"has_3d_model":false,"image_url":null,"decayed_at":null,"tle_current":{"epoch":"2026-09-20T18:27:21.822048Z","epoch_age_seconds":129408,"freshness":"FRESH","line1":"1 63698U 25087B   26263.76900257  .00021364  00000+0  64170-3 0  9995","line2":"2 63698  53.1596  32.2653 0000973 102.6429 257.4683 15.34397183 79079","mean_motion":15.34397183,"eccentricity":9.73e-5,"inclination_deg":53.1596,"raan_deg":32.2653,"arg_perigee_deg":102.6429,"mean_anomaly_deg":257.4683,"bstar":0.0006417,"rev_number":7907,"period_min":93.847930376447,"perigee_km":462.04599836753,"apogee_km":463.37722750761,"semimajor_km":6840.8486129376,"source":"CELESTRAK","updated_at":"2026-09-21T09:00:35.062150Z"}}}